Location: Arrodets-la-Barthe
(43.0306°N, 0.2829°E)
Time: 11:23:01
(UTC+00:00)

Iridium 4 Rocket - Visible Passes

Search period start: 29 May 2022 00:00
Search period end: 08 June 2022 00:00
Orbit: 583 x 905 km, 86.9° (Epoch: 28 May)

Date Brightness Start Highest point End Pass type
(mag) Time Alt. Az. Time Alt. Az. Time Alt. Az.
29 May 5.4 00:02:53 10° NW 00:05:48 16° W 00:06:46 15° W visible
29 May 4.7 21:38:40 10° NNE 21:42:36 25° E 21:43:46 23° E visible
29 May 4.4 23:18:11 10° NNW 23:22:35 37° W 23:23:32 34° WSW visible
30 May 5.6 20:57:31 10° ENE 20:58:45 11° ENE 21:00:00 10° E visible
30 May 3.3 22:34:21 10° N 22:39:12 86° W 22:40:18 56° S visible
31 May 4.1 21:51:03 10° NNE 21:55:40 41° E 21:57:05 34° ESE visible
31 May 5.2 23:31:35 10° NNW 23:35:23 23° W 23:36:51 20° WSW visible
01 Jun 5.1 21:08:27 10° NNE 21:11:58 19° ENE 21:13:53 16° ESE visible
01 Jun 4.0 22:47:20 10° NNW 22:52:06 52° W 22:53:39 38° SW visible
02 Jun 3.5 22:03:42 10° N 22:08:40 70° E 22:10:26 42° SSE visible
02 Jun 5.8 23:45:29 10° NW 23:48:07 14° WNW 23:50:13 12° WSW visible
03 Jun 4.5 21:20:35 10° NNE 21:25:04 31° E 21:27:15 23° ESE visible
03 Jun 4.9 23:00:31 10° NNW 23:04:57 32° W 23:07:02 24° WSW visible
04 Jun 5.4 20:38:26 10° NE 20:41:16 15° ENE 20:44:04 10° ESE visible
04 Jun 3.7 22:16:33 10° N 22:21:37 71° W 22:23:51 36° SSW visible
05 Jun 3.9 21:33:06 10° N 21:38:08 52° E 21:40:40 29° SSE visible
05 Jun 5.6 23:14:02 10° NW 23:17:44 20° W 23:20:26 14° WSW visible
06 Jun 4.9 20:50:14 10° NNE 20:54:27 24° E 20:57:31 16° ESE visible
06 Jun 4.5 22:29:37 10° NNW 22:34:30 43° W 22:37:17 25° SW visible
07 Jun 5.6 20:09:02 10° NE 20:10:33 11° ENE 20:12:05 10° E visible
07 Jun 3.6 21:45:52 10° N 21:51:07 86° E 21:54:08 28° S visible
07 Jun 6.1 23:28:15 10° NW 23:30:25 12° WNW 23:32:37 10° W visible
